Volver al catálogo

STARLINK-2395

ActivoComunicacionesVLEO
NORAD 47814·PAYLOAD·🇺🇸 United States

Lanzado Mar 11, 2021 desde Cape Canaveral Space Force Station

Loading…

Próximos Pases (próximas 24 horas)

TLE

ActualizadoSource: CelesTrak SupGP

Época: Sep 15, 2026, 01:08 UTC

1 47814C 21018AD  26258.04770833  .00039921  00000+0  11645-2 0  2581
2 47814  53.1558  81.0841 0000848 135.6553 134.7074 15.34771790    14

Sigue STARLINK-2395 en tiempo real con AllMySat

Download on the App Store